Weather History for South Bend, IN

Change the Weather History Date:

Tuesday, August 5, 2014

  Actual Average Record
Temperature  
Mean Temperature 73 °F 72 °F  
Max Temperature 82 °F 82 °F 102 °F (1918)
Min Temperature 64 °F 63 °F 47 °F (1912)
Degree Days  
Heating Degree Days 0 0  
Month to date heating degree days 0 0  
Since 1 June heating degree days 35 49  
Since 1 July heating degree days 18 5  
Cooling Degree Days 8 7  
Month to date cooling degree days 35 37  
Year to date cooling degree days 476 511  
Since 1 June cooling degree days 391 455  
Growing Degree Days 24 (Base 50)    
Moisture  
Dew Point 65 °F    
Average Humidity 74    
Maximum Humidity 90    
Minimum Humidity 58    
Precipitation  
Precipitation 0.51 in 0.12 in 1.84 in (2007)
Month to date precipitation 0.51 0.62  
Year to date precipitation 26.52 22.13  
Sea Level Pressure  
Sea Level Pressure 30.05 in    
Wind  
Wind Speed 5 mph (West)    
Max Wind Speed 14 mph    
Max Gust Speed 21 mph    
Visibility 7 miles    
Events Rain , Thunderstorm    
T = Trace of Precipitation, MM = Missing Value Source: NWS Daily Summary

Daily Weather History Graph

Daily Weather History Graph

Search for Another Location

Airport:

Trip Planner

Search our weather history database for the weather conditions in past years. The results will help you decide how hot, cold, wet, or windy it might be!

Date:

Astronomy

Aug. 05, 2014 Rise Set
Actual Time 6:43 AM EDT 8:58 PM EDT
Civil Twilight 6:12 AM EDT 9:29 PM EDT
Nautical Twilight 5:34 AM EDT 10:07 PM EDT
Astronomical Twilight 4:52 AM EDT 10:49 PM EDT
Moon 4:13 PM EDT (8/5) 1:30 AM EDT (8/5)
Length of Visible Light 15h 16m
Length of Day
14h 14m
Waxing Gibbous, 67% of the Moon is Illuminated
Aug 5
Waxing Gibbous
Aug 10
Full
Aug 17
Last Quarter
Aug 25
New
Sep 2
First Quarter

Hourly Weather History & Observations

Time (EDT) Temp. Heat Index Dew Point Humidity Pressure Visibility Wind Dir Wind Speed Gust Speed Precip Events Conditions
12:54 AM 71.1 °F - 63.0 °F 75% 30.06 in 10.0 mi Calm Calm - 0.00 in   Clear
1:54 AM 72.0 °F - 63.0 °F 73% 30.04 in 10.0 mi ESE 3.5 mph - 0.00 in Rain Light Rain
2:54 AM 68.0 °F - 64.9 °F 90% 30.04 in 6.0 mi NW 5.8 mph - 0.02 in Rain Light Rain
3:54 AM 68.0 °F - 64.0 °F 87% 30.04 in 8.0 mi North 4.6 mph - 0.01 in Rain Light Rain
4:37 AM 66.9 °F - 64.0 °F 90% 30.06 in 5.0 mi Calm Calm - 0.06 in Rain , Thunderstorm Rain
4:54 AM 68.0 °F - 64.0 °F 87% 30.05 in 7.0 mi Calm Calm - 0.07 in Rain Light Rain
5:16 AM 68.0 °F - 64.9 °F 90% 30.06 in 7.0 mi ESE 4.6 mph - 0.00 in Rain Light Rain
5:54 AM 66.9 °F - 64.0 °F 90% 30.04 in 6.0 mi East 4.6 mph - 0.01 in   Overcast
6:54 AM 68.0 °F - 64.9 °F 90% 30.04 in 6.0 mi SE 4.6 mph - N/A   Overcast
7:22 AM 68.0 °F - 64.9 °F 90% 30.06 in 2.0 mi Calm Calm - 0.00 in Rain Light Rain
7:54 AM 69.1 °F - 66.0 °F 90% 30.04 in 2.0 mi South 3.5 mph - 0.00 in   Overcast
8:40 AM 68.0 °F - 66.0 °F 93% 30.08 in 1.2 mi West 5.8 mph - 0.08 in Rain Rain
8:54 AM 68.0 °F - 64.9 °F 90% 30.06 in 1.5 mi WSW 5.8 mph - 0.12 in Rain Rain
9:54 AM 68.0 °F - 64.9 °F 90% 30.07 in 2.5 mi Calm Calm - 0.26 in Rain Light Rain
10:41 AM 69.1 °F - 64.9 °F 87% 30.08 in 2.5 mi Calm Calm - 0.02 in   Overcast
10:54 AM 69.1 °F - 66.0 °F 90% 30.07 in 2.5 mi South 3.5 mph - 0.02 in   Overcast
11:08 AM 70.0 °F - 66.0 °F 87% 30.09 in 2.5 mi South 3.5 mph - N/A   Overcast
11:54 AM 70.0 °F - 66.0 °F 87% 30.08 in 2.5 mi SE 3.5 mph - N/A   Overcast
12:04 PM 71.1 °F - 66.0 °F 84% 30.08 in 2.5 mi Calm Calm - N/A   Haze
12:11 PM 71.1 °F - 66.9 °F 87% 30.08 in 2.5 mi SSE 3.5 mph - N/A   Overcast
12:27 PM 73.9 °F - 66.9 °F 79% 30.07 in 6.0 mi SW 4.6 mph - N/A   Haze
12:49 PM 73.4 °F - 66.2 °F 78% 30.07 in 8.0 mi WSW 6.9 mph - N/A   Mostly Cloudy
12:54 PM 73.9 °F - 66.0 °F 76% 30.06 in 7.0 mi SW 9.2 mph - 0.00 in Rain Light Rain
1:13 PM 72.0 °F - 68.0 °F 87% 30.07 in 5.0 mi SW 8.1 mph - 0.00 in Rain Light Rain
1:54 PM 73.9 °F - 66.9 °F 79% 30.05 in 8.0 mi WSW 5.8 mph - 0.00 in   Scattered Clouds
2:54 PM 78.1 °F - 64.9 °F 64% 30.03 in 10.0 mi WSW 6.9 mph - N/A   Mostly Cloudy
3:39 PM 79.0 °F - 64.9 °F 62% 30.04 in 10.0 mi Variable 3.5 mph - N/A   Mostly Cloudy
3:54 PM 80.1 °F 81.7 °F 64.0 °F 58% 30.02 in 10.0 mi Variable 5.8 mph - N/A   Mostly Cloudy
4:54 PM 80.1 °F 81.9 °F 64.9 °F 60% 30.01 in 10.0 mi North 4.6 mph - N/A   Mostly Cloudy
5:54 PM 79.0 °F - 64.0 °F 60% 30.01 in 10.0 mi WNW 8.1 mph - N/A   Overcast
6:01 PM 79.0 °F - 64.0 °F 60% 30.02 in 10.0 mi NW 6.9 mph - N/A   Partly Cloudy
6:54 PM 78.1 °F - 64.9 °F 64% 30.01 in 10.0 mi NW 11.5 mph - N/A   Mostly Cloudy
7:54 PM 75.0 °F - 64.9 °F 71% 30.01 in 10.0 mi NNW 8.1 mph - N/A   Clear
8:54 PM 71.1 °F - 64.9 °F 81% 30.02 in 10.0 mi North 5.8 mph - N/A   Clear
9:54 PM 69.1 °F - 64.0 °F 84% 30.03 in 10.0 mi NNW 4.6 mph - N/A   Clear
10:54 PM 66.9 °F - 62.1 °F 84% 30.04 in 10.0 mi North 5.8 mph - N/A   Clear
11:54 PM 64.9 °F - 60.1 °F 84% 30.04 in 10.0 mi NW 4.6 mph - N/A   Clear